Location: Melizzano
(41.1500°N, 14.5000°E)
Time: 21:26:55
(UTC+00:00)

BREEZE-M DEB (TANK) - Pass Details

Date: 11 May 2021
Orbit: 320 x 13078 km, 49.7° (Epoch: 21 June)

Event Time Altitude Azimuth Distance (km) Brightness Sun altitude
Rises 22:38:44 0° 297° (WNW) 8,454 9.2 -30.5°
Reaches altitude 10° 22:46:43 10° 299° (WNW) 5,499 8.2 -30.7°
Enters shadow 22:58:07 74° 10° (N) 948 3.9 -30.7°
